CZ-6A DEB, 61840

Orbit data source: Space-Track

CZ-6A DEB, 61840 is space debris in LEO originally from a launch on Tue, 06 Aug 2024 UTC launched from the Taiyaun Space Center, China (TSC). Debris objects in space refer to the collection of defunct objects orbiting the Earth. Examples of debris include non-operational satellites, rocket bodies, and fragments generated from explosions, collisions, or faulty payload assembly.

Loading next visibility...
Identifier
61840, 2024-140ADG
Orbit
LEO
Country
Flag of CNCN / PRC
Related business
Manufacturer
SAST
Mission
Spacecraft
Bus & Motor
Unknown
Mass
Unknown
Launch date (UTC)
2024-08-06 (2 years ago)
Launch vehicle
Unknown
Launch site
Taiyaun Space Center, China (TSC)
Object type
Payload
Rocket body
Debris
Shape & HBR
Unknown shape, 0.1 m
Radar Cross Section
Small (<0.1 m²)

Expand to show TLE details & history
Last TLE update: 14 hours ago

TLE from 14 hours ago
0 CZ-6A DEB
1 61840U 24140ADG 26171.28579970  .00001870  00000-0  91611-3 0  9991
2 61840  89.0525 279.2200 0075769 192.7095 167.2185 14.15991490 93712
Epoch: 2026-06-20T06:51Z
TLE epoch observation values (Epoch: 2026-06-20T06:51:33.094Z)
Latitude
-0.00003°
Longitude
-92.1705°
Altitude
895.348 km
Speed
7.377 km/s
True Right ascension
18h 36m 52s
True Declination
0° 00' 00"
Sunlit
Object was in full shadow at epoch
Visualization orbit readout
Latitude
Unknown
Longitude
Unknown
Altitude
Unknown
Speed
Unknown
Apparent Right ascension
Unknown
Apparent Declination
Unknown
Sunlit
N/A
Visualization observer readout
Local Sidereal Time
07:19:00
Azimuth
Unknown
Elevation
Unknown
Doppler factor
Unknown
Orbital elements
Apogee altitude
890.558 km
Perigee altitude
781.238 km
Semi-major axis
7,214.035 km
Eccentricity
0.00758
Inclination
89.0525°
RAAN
279.22°
Arg. of periapsis
192.7095°
True anomaly
167.40883°
Mean anomaly
167.2185°
Eccentric anomaly
167.31384°
Mean motion
3.54222 °/min
Orbital period
101.63 mins
BSTAR
0.00091611
Loading maneuver chart data...
Computing Atmospheric mass density...
Loading historical data...
Loading historical data...
Loading historical data...
Loading historical data...
Loading historical data...
Loading historical data...
Loading historical data...

Documentation

Showing up to 5 results
|